This is the latest recevied weather packets stored in our database for station/object KC8ZBC. If no packets are shown the sender has not sent any weather packets the latest 10 day(s).
| Time | Temp. | Humidity | Pressure | Rain* | Wind** | Luminosity | Snow |
|---|---|---|---|---|---|---|---|
| 1777219768 | 14.44° C | 57% | 996.3 hPa | 0 mm | - | 732 W/m² | - |
| 1777219466 | 14.44° C | 60% | 996.7 hPa | 0 mm | - | 502 W/m² | - |
| 1777219161 | 13.33° C | 59% | 996.5 hPa | 0 mm | - | 532 W/m² | - |
| 1777218857 | 13.89° C | 59% | 996.4 hPa | 0 mm | - | 612 W/m² | - |
| 1777218554 | 13.89° C | 61% | 996.5 hPa | 0 mm | - | 628 W/m² | - |
| 1777218248 | 13.33° C | 60% | 996.5 hPa | 0 mm | - | 565 W/m² | - |
| 1777217946 | 13.89° C | 61% | 996.5 hPa | 0 mm | - | 673 W/m² | - |
| 1777217641 | 13.33° C | 60% | 996.4 hPa | 0 mm | - | 646 W/m² | - |
| 1777217337 | 13.33° C | 60% | 996.3 hPa | 0 mm | - | 646 W/m² | - |
| 1777217033 | 13.89° C | 59% | 996.3 hPa | 0 mm | - | 656 W/m² | - |
| 1777216730 | 13.33° C | 61% | 996.5 hPa | 0 mm | - | 630 W/m² | - |
| 1777216426 | 13.33° C | 61% | 996.6 hPa | 0 mm | - | 650 W/m² | - |
| 1777216125 | 12.78° C | 61% | 996.6 hPa | 0 mm | - | 675 W/m² | - |
| 1777215825 | 13.33° C | 61% | 996.4 hPa | 0 mm | - | 662 W/m² | - |
| 1777215521 | 12.78° C | 62% | 996.5 hPa | 0 mm | - | 689 W/m² | - |
| 1777215218 | 12.78° C | 62% | 996.4 hPa | 0 mm | - | 610 W/m² | - |
| 1777214913 | 12.78° C | 61% | 996.6 hPa | 0 mm | - | 590 W/m² | - |
| 1777214612 | 12.22° C | 63% | 996.4 hPa | 0 mm | - | 504 W/m² | - |
| 1777214308 | 12.22° C | 64% | 996.5 hPa | 0 mm | - | 513 W/m² | - |
| 1777214006 | 11.67° C | 66% | 996.5 hPa | 0 mm | - | 564 W/m² | - |
| 1777213702 | 11.67° C | 65% | 996.6 hPa | 0 mm | - | 427 W/m² | - |
| 1777213398 | 11.67° C | 65% | 996.4 hPa | 0 mm | - | 525 W/m² | - |
| 1777213095 | 11.11° C | 66% | 996.4 hPa | 0 mm | - | 537 W/m² | - |
| 1777212792 | 11.67° C | 65% | 996.4 hPa | 0 mm | - | 500 W/m² | - |
| 1777212488 | 11.11° C | 65% | 996.5 hPa | 0 mm | - | 487 W/m² | - |
* Rain latest hour (hover to see other rain measurements)
** Current wind speed in m/s (hover to see current wind gust speed)